AUA565 LOWW-LICJ

Flight info

Callsign AUA565
Flight time 1h 41m
Altitude 38000
Route STEIN DCT NOHAT DCT NEKIN DCT MONID DCT SIRMI DCT MOLUX DCT BEDPI DCT SOR DCT DELER DCT AMANO DCT ROSAS
Aircraft A20N/M-SDE2E3FGHIJ1RWXY/LB1

Departure

Time 2026-04-20 12:19
Airport Vienna International Airport (LOWW)

Arrival

Time 2026-04-20 14:00
Airport Falcone–Borsellino Airport (LICJ)
Time Latitude Longitude Altitude Speed Heading
2026-04-20 12:03 48.11901 16.56769 608 ft 0 kts 205°
2026-04-20 12:04 48.11905 16.56772 609 ft 2 kts 205°
2026-04-20 12:04 48.11919 16.56781 609 ft 2 kts 205°
2026-04-20 12:04 48.11932 16.56790 609 ft 0 kts 205°
2026-04-20 12:04 48.11942 16.56797 609 ft 2 kts 187°
2026-04-20 12:05 48.11957 16.56795 609 ft 2 kts 161°
2026-04-20 12:05 48.11970 16.56783 609 ft 2 kts 134°
2026-04-20 12:05 48.11975 16.56772 609 ft 0 kts 118°
2026-04-20 12:05 48.11979 16.56762 609 ft 0 kts 115°
2026-04-20 12:06 48.11979 16.56763 609 ft 0 kts 115°
2026-04-20 12:07 48.11978 16.56763 608 ft 0 kts 115°
2026-04-20 12:07 48.11977 16.56768 609 ft 1 kts 116°
2026-04-20 12:07 48.11969 16.56791 608 ft 5 kts 117°
2026-04-20 12:07 48.11939 16.56885 609 ft 11 kts 116°
2026-04-20 12:08 48.11903 16.56995 608 ft 11 kts 117°
2026-04-20 12:08 48.11866 16.57103 609 ft 11 kts 116°
2026-04-20 12:08 48.11850 16.57217 608 ft 11 kts 107°
2026-04-20 12:08 48.11818 16.57323 608 ft 11 kts 116°
2026-04-20 12:09 48.11806 16.57434 609 ft 10 kts 110°
2026-04-20 12:09 48.11746 16.57494 609 ft 10 kts 161°
2026-04-20 12:09 48.11676 16.57524 609 ft 10 kts 166°
2026-04-20 12:09 48.11606 16.57554 608 ft 10 kts 164°
2026-04-20 12:10 48.11536 16.57584 609 ft 10 kts 164°
2026-04-20 12:10 48.11467 16.57613 609 ft 10 kts 165°
2026-04-20 12:10 48.11400 16.57642 609 ft 10 kts 164°
2026-04-20 12:10 48.11332 16.57670 609 ft 10 kts 165°
2026-04-20 12:11 48.11264 16.57698 609 ft 10 kts 165°
2026-04-20 12:11 48.11197 16.57726 609 ft 10 kts 165°
2026-04-20 12:11 48.11130 16.57754 609 ft 10 kts 164°
2026-04-20 12:11 48.11063 16.57783 609 ft 9 kts 164°
2026-04-20 12:12 48.10997 16.57812 609 ft 9 kts 163°
2026-04-20 12:12 48.10931 16.57841 609 ft 9 kts 164°
2026-04-20 12:12 48.10865 16.57868 609 ft 9 kts 165°
2026-04-20 12:12 48.10798 16.57898 609 ft 10 kts 163°
2026-04-20 12:13 48.10724 16.57932 609 ft 11 kts 163°
2026-04-20 12:13 48.10642 16.57968 609 ft 12 kts 163°
2026-04-20 12:13 48.10554 16.58002 609 ft 13 kts 166°
2026-04-20 12:13 48.10460 16.58039 609 ft 14 kts 165°
2026-04-20 12:14 48.10361 16.58081 608 ft 15 kts 164°
2026-04-20 12:14 48.10258 16.58126 609 ft 15 kts 164°
2026-04-20 12:14 48.10151 16.58173 609 ft 16 kts 164°
2026-04-20 12:14 48.10039 16.58219 609 ft 16 kts 166°
2026-04-20 12:15 48.09926 16.58265 608 ft 17 kts 165°
2026-04-20 12:15 48.09812 16.58313 609 ft 17 kts 164°
2026-04-20 12:15 48.09698 16.58361 608 ft 16 kts 165°
2026-04-20 12:15 48.09588 16.58407 609 ft 16 kts 165°
2026-04-20 12:16 48.09478 16.58451 609 ft 14 kts 164°
2026-04-20 12:16 48.09376 16.58498 609 ft 15 kts 163°
2026-04-20 12:16 48.09271 16.58544 608 ft 16 kts 164°
2026-04-20 12:16 48.09161 16.58590 609 ft 16 kts 165°
2026-04-20 12:17 48.09051 16.58634 609 ft 16 kts 165°
2026-04-20 12:17 48.08954 16.58707 608 ft 15 kts 133°
2026-04-20 12:17 48.08921 16.58857 609 ft 15 kts 88°
2026-04-20 12:17 48.08944 16.58955 609 ft 9 kts 56°
2026-04-20 12:18 48.08996 16.59024 609 ft 10 kts 25°
2026-04-20 12:18 48.09158 16.59007 609 ft 52 kts 343°
2026-04-20 12:18 48.09751 16.58757 609 ft 122 kts 345°
2026-04-20 12:18 48.10754 16.58322 744 ft 165 kts 342°
2026-04-20 12:19 48.11830 16.57844 1505 ft 160 kts 341°
2026-04-20 12:19 48.12738 16.57061 2253 ft 157 kts 303°
2026-04-20 12:19 48.12906 16.55474 2918 ft 168 kts 262°
2026-04-20 12:19 48.12304 16.53871 3477 ft 191 kts 230°
2026-04-20 12:20 48.11114 16.52805 4051 ft 212 kts 212°
2026-04-20 12:20 48.09747 16.51783 4646 ft 228 kts 213°
2026-04-20 12:20 48.08345 16.50684 5456 ft 234 kts 213°
2026-04-20 12:20 48.06910 16.49539 6357 ft 236 kts 214°
2026-04-20 12:21 48.05488 16.48360 7262 ft 236 kts 218°
2026-04-20 12:21 48.04105 16.47044 7971 ft 246 kts 219°
2026-04-20 12:21 48.02614 16.45583 8517 ft 263 kts 219°
2026-04-20 12:21 48.01062 16.44063 9155 ft 276 kts 219°
2026-04-20 12:22 47.99408 16.42607 10026 ft 284 kts 208°
2026-04-20 12:22 47.97413 16.42064 10751 ft 304 kts 184°
2026-04-20 12:22 47.95260 16.42626 11217 ft 327 kts 172°
2026-04-20 12:22 47.93043 16.43458 11874 ft 336 kts 171°
2026-04-20 12:23 47.90754 16.44327 12686 ft 340 kts 171°
2026-04-20 12:23 47.88462 16.45179 13484 ft 343 kts 171°
2026-04-20 12:23 47.86137 16.46022 14239 ft 347 kts 171°
2026-04-20 12:23 47.83796 16.46859 14982 ft 351 kts 172°
2026-04-20 12:24 47.81420 16.47705 15749 ft 354 kts 172°
2026-04-20 12:24 47.79019 16.48552 16485 ft 357 kts 172°
2026-04-20 12:24 47.76619 16.49399 17194 ft 360 kts 172°
2026-04-20 12:24 47.74163 16.50259 17920 ft 363 kts 172°
2026-04-20 12:25 47.71695 16.51124 18619 ft 366 kts 173°
2026-04-20 12:25 47.69229 16.51989 19282 ft 370 kts 173°
2026-04-20 12:25 47.66709 16.52869 19902 ft 374 kts 173°
2026-04-20 12:25 47.64170 16.53755 20519 ft 378 kts 173°
2026-04-20 12:26 47.61630 16.54644 21141 ft 382 kts 173°
2026-04-20 12:26 47.59034 16.55552 21751 ft 386 kts 173°
2026-04-20 12:26 47.56389 16.56477 22344 ft 390 kts 173°
2026-04-20 12:26 47.53753 16.57398 22906 ft 395 kts 173°
2026-04-20 12:27 47.51069 16.58271 23493 ft 397 kts 176°
2026-04-20 12:27 47.48353 16.58903 24094 ft 397 kts 179°
2026-04-20 12:27 47.45587 16.59443 24597 ft 402 kts 179°
2026-04-20 12:27 47.42824 16.59904 25062 ft 404 kts 182°
2026-04-20 12:28 47.40032 16.60127 25578 ft 404 kts 186°
2026-04-20 12:28 47.37220 16.60251 26026 ft 407 kts 186°
2026-04-20 12:28 47.34383 16.60370 26437 ft 411 kts 186°
2026-04-20 12:28 47.31518 16.60488 26854 ft 415 kts 187°
2026-04-20 12:29 47.28641 16.60612 27233 ft 419 kts 187°
2026-04-20 12:29 47.25695 16.60737 27624 ft 423 kts 187°
2026-04-20 12:29 47.22766 16.60866 28014 ft 426 kts 187°
2026-04-20 12:29 47.19787 16.60996 28373 ft 429 kts 187°
2026-04-20 12:30 47.16821 16.61123 28678 ft 434 kts 188°
2026-04-20 12:30 47.13761 16.61255 29022 ft 437 kts 188°
2026-04-20 12:30 47.10732 16.61384 29375 ft 439 kts 188°
2026-04-20 12:30 47.07693 16.61516 29707 ft 442 kts 188°
2026-04-20 12:31 47.04619 16.61647 29987 ft 445 kts 188°
2026-04-20 12:31 47.01538 16.61780 30242 ft 449 kts 189°
2026-04-20 12:31 46.98378 16.61920 30523 ft 451 kts 189°
2026-04-20 12:31 46.95238 16.62049 30749 ft 455 kts 189°
2026-04-20 12:32 46.92108 16.62181 31082 ft 455 kts 189°
2026-04-20 12:32 46.88929 16.62316 31502 ft 453 kts 189°
2026-04-20 12:32 46.85819 16.62450 31854 ft 452 kts 189°
2026-04-20 12:32 46.82669 16.62599 32198 ft 453 kts 187°
2026-04-20 12:33 46.79499 16.62951 32507 ft 458 kts 184°
2026-04-20 12:33 46.76368 16.63528 32803 ft 460 kts 182°
2026-04-20 12:33 46.73178 16.64150 33160 ft 459 kts 182°
2026-04-20 12:33 46.70022 16.64765 33496 ft 458 kts 182°
2026-04-20 12:34 46.66896 16.65369 33780 ft 458 kts 182°
2026-04-20 12:34 46.63719 16.65978 34089 ft 458 kts 182°
2026-04-20 12:34 46.60588 16.66573 34356 ft 458 kts 182°
2026-04-20 12:34 46.57439 16.67174 34623 ft 457 kts 182°
2026-04-20 12:35 46.54292 16.67771 34847 ft 458 kts 182°
2026-04-20 12:35 46.51146 16.68367 35101 ft 457 kts 181°
2026-04-20 12:35 46.47990 16.68954 35347 ft 455 kts 182°
2026-04-20 12:35 46.44886 16.69361 35583 ft 450 kts 186°
2026-04-20 12:36 46.41769 16.69484 35847 ft 444 kts 189°
2026-04-20 12:36 46.38719 16.69314 36056 ft 440 kts 193°
2026-04-20 12:36 46.35708 16.68866 36278 ft 436 kts 196°
2026-04-20 12:36 46.32731 16.68147 36465 ft 432 kts 200°
2026-04-20 12:37 46.29802 16.67302 36620 ft 433 kts 199°
2026-04-20 12:37 46.26835 16.66450 36803 ft 433 kts 199°
2026-04-20 12:37 46.23900 16.65611 36956 ft 434 kts 199°
2026-04-20 12:37 46.20902 16.64758 37081 ft 436 kts 199°
2026-04-20 12:38 46.17932 16.63919 37229 ft 437 kts 198°
2026-04-20 12:38 46.14967 16.63087 37364 ft 439 kts 198°
2026-04-20 12:38 46.11967 16.62243 37501 ft 440 kts 198°
2026-04-20 12:38 46.08946 16.61396 37657 ft 440 kts 197°
2026-04-20 12:39 46.02983 16.59726 37944 ft 441 kts 197°
2026-04-20 12:39 45.99967 16.58885 38022 ft 442 kts 197°
2026-04-20 12:40 45.93931 16.57208 37981 ft 442 kts 197°
2026-04-20 12:40 45.87893 16.55530 38029 ft 442 kts 197°
2026-04-20 12:41 45.81849 16.53855 38036 ft 443 kts 197°
2026-04-20 12:41 45.75818 16.52184 38054 ft 443 kts 197°
2026-04-20 12:42 45.69774 16.50514 38047 ft 443 kts 197°
2026-04-20 12:42 45.63715 16.48842 38044 ft 443 kts 197°
2026-04-20 12:43 45.57637 16.47170 38013 ft 443 kts 197°
2026-04-20 12:43 45.51597 16.45510 38019 ft 443 kts 197°
2026-04-20 12:44 45.45557 16.43856 38006 ft 443 kts 197°
2026-04-20 12:44 45.39507 16.42199 38023 ft 443 kts 197°
2026-04-20 12:45 45.33470 16.40554 37992 ft 444 kts 197°
2026-04-20 12:45 45.27395 16.38898 38023 ft 443 kts 197°
2026-04-20 12:46 45.21341 16.37253 38012 ft 444 kts 197°
2026-04-20 12:46 45.15269 16.35605 38016 ft 445 kts 198°
2026-04-20 12:47 45.09191 16.33957 37971 ft 444 kts 197°
2026-04-20 12:47 45.03155 16.32329 37994 ft 444 kts 197°
2026-04-20 12:48 44.97058 16.30949 38015 ft 447 kts 191°
2026-04-20 12:48 44.90807 16.30555 37981 ft 453 kts 186°
2026-04-20 12:49 44.84482 16.30555 37977 ft 454 kts 186°
2026-04-20 12:49 44.78198 16.30548 37999 ft 454 kts 186°
2026-04-20 12:50 44.71889 16.30534 37987 ft 453 kts 186°
2026-04-20 12:50 44.65568 16.30517 37994 ft 453 kts 185°
2026-04-20 12:51 44.59275 16.30500 37986 ft 453 kts 185°
2026-04-20 12:51 44.52983 16.30483 37984 ft 453 kts 185°
2026-04-20 12:52 44.46671 16.30465 37983 ft 453 kts 185°
2026-04-20 12:52 44.40346 16.30448 37968 ft 454 kts 185°
2026-04-20 12:53 44.34013 16.30431 37974 ft 453 kts 185°
2026-04-20 12:53 44.27719 16.30411 37974 ft 452 kts 185°
2026-04-20 12:54 44.21478 16.30310 37996 ft 450 kts 188°
2026-04-20 12:54 44.15274 16.29303 37986 ft 443 kts 197°
2026-04-20 12:55 44.09391 16.27215 38000 ft 437 kts 204°
2026-04-20 12:55 44.03753 16.24229 37984 ft 435 kts 208°
2026-04-20 12:56 43.98105 16.21097 37988 ft 435 kts 208°
2026-04-20 12:56 43.92508 16.18013 37984 ft 434 kts 208°
2026-04-20 12:57 43.86884 16.14927 37975 ft 434 kts 208°
2026-04-20 12:57 43.81266 16.11853 37980 ft 434 kts 207°
2026-04-20 12:58 43.75663 16.08793 37981 ft 434 kts 207°
2026-04-20 12:58 43.70049 16.05734 37976 ft 434 kts 207°
2026-04-20 12:59 43.64452 16.02691 37980 ft 433 kts 207°
2026-04-20 12:59 43.58858 15.99656 37979 ft 433 kts 208°
2026-04-20 13:00 43.53268 15.96628 37965 ft 433 kts 208°
2026-04-20 13:00 43.47649 15.93590 37967 ft 432 kts 207°
2026-04-20 13:01 43.42063 15.90577 37963 ft 432 kts 208°
2026-04-20 13:01 43.36497 15.87579 37968 ft 432 kts 207°
2026-04-20 13:02 43.30917 15.84580 37970 ft 431 kts 207°
2026-04-20 13:02 43.25314 15.81578 37965 ft 432 kts 207°
2026-04-20 13:03 43.19740 15.78594 37967 ft 432 kts 207°
2026-04-20 13:03 43.14158 15.75614 37967 ft 431 kts 207°
2026-04-20 13:04 43.08564 15.72632 37963 ft 431 kts 207°
2026-04-20 13:04 43.03004 15.69673 37961 ft 431 kts 207°
2026-04-20 13:05 42.97422 15.66709 37960 ft 431 kts 207°
2026-04-20 13:05 42.91857 15.63761 37961 ft 430 kts 207°
2026-04-20 13:06 42.86277 15.60809 37962 ft 430 kts 207°
2026-04-20 13:06 42.80715 15.57873 37958 ft 431 kts 207°
2026-04-20 13:07 42.75132 15.54930 37954 ft 432 kts 207°
2026-04-20 13:07 42.69551 15.51995 37956 ft 431 kts 207°
2026-04-20 13:08 42.63963 15.49062 37958 ft 431 kts 207°
2026-04-20 13:08 42.58377 15.46137 37961 ft 431 kts 207°
2026-04-20 13:09 42.52798 15.43221 37951 ft 431 kts 207°
2026-04-20 13:09 42.47207 15.40303 37953 ft 431 kts 207°
2026-04-20 13:10 42.41594 15.37380 37950 ft 431 kts 207°
2026-04-20 13:10 42.36024 15.34484 37951 ft 431 kts 206°
2026-04-20 13:11 42.30422 15.31578 37938 ft 432 kts 206°
2026-04-20 13:11 42.24817 15.28674 37936 ft 432 kts 206°
2026-04-20 13:12 42.19236 15.25789 37937 ft 432 kts 206°
2026-04-20 13:12 42.13632 15.22899 37930 ft 432 kts 206°
2026-04-20 13:13 42.08019 15.20007 37930 ft 433 kts 206°
2026-04-20 13:13 42.02365 15.17102 37924 ft 433 kts 206°
2026-04-20 13:14 41.96750 15.14224 37923 ft 433 kts 206°
2026-04-20 13:14 41.91103 15.11334 37929 ft 433 kts 206°
2026-04-20 13:15 41.85483 15.08460 37940 ft 433 kts 206°
2026-04-20 13:15 41.79882 15.05603 37952 ft 433 kts 206°
2026-04-20 13:16 41.74269 15.02744 37961 ft 433 kts 206°
2026-04-20 13:16 41.68605 14.99867 37967 ft 433 kts 206°
2026-04-20 13:17 41.62984 14.97015 37971 ft 433 kts 207°
2026-04-20 13:17 41.57365 14.94169 37980 ft 433 kts 206°
2026-04-20 13:18 41.51737 14.91324 37991 ft 434 kts 207°
2026-04-20 13:18 41.46079 14.88469 38001 ft 433 kts 207°
2026-04-20 13:19 41.40425 14.85620 38005 ft 433 kts 207°
2026-04-20 13:19 41.34786 14.82786 38006 ft 433 kts 207°
2026-04-20 13:20 41.29258 14.79786 38003 ft 430 kts 212°
2026-04-20 13:20 41.23893 14.76254 38002 ft 429 kts 213°
2026-04-20 13:21 41.18554 14.72745 38010 ft 429 kts 213°
2026-04-20 13:21 41.13195 14.69230 38005 ft 429 kts 213°
2026-04-20 13:22 41.07834 14.65720 38009 ft 428 kts 213°
2026-04-20 13:22 41.02484 14.62222 38012 ft 429 kts 213°
2026-04-20 13:23 40.97119 14.58719 38016 ft 429 kts 213°
2026-04-20 13:23 40.91768 14.55234 38013 ft 429 kts 213°
2026-04-20 13:24 40.86405 14.51746 38011 ft 429 kts 213°
2026-04-20 13:24 40.81084 14.48292 38006 ft 430 kts 213°
2026-04-20 13:25 40.75732 14.44822 38003 ft 429 kts 213°
2026-04-20 13:25 40.70362 14.41347 38003 ft 429 kts 213°
2026-04-20 13:26 40.65027 14.37900 38007 ft 428 kts 213°
2026-04-20 13:26 40.59655 14.34463 38007 ft 429 kts 211°
2026-04-20 13:27 40.54094 14.31569 38007 ft 435 kts 206°
2026-04-20 13:27 40.48400 14.28905 38001 ft 434 kts 206°
2026-04-20 13:28 40.42738 14.26255 38002 ft 435 kts 206°
2026-04-20 13:28 40.37023 14.23579 38003 ft 435 kts 206°
2026-04-20 13:29 40.31364 14.20936 38003 ft 434 kts 206°
2026-04-20 13:29 40.25654 14.18270 38003 ft 434 kts 206°
2026-04-20 13:30 40.19982 14.15629 38004 ft 435 kts 206°
2026-04-20 13:30 40.14307 14.12989 38006 ft 434 kts 206°
2026-04-20 13:31 40.08591 14.10327 38008 ft 434 kts 206°
2026-04-20 13:31 40.02931 14.07691 38006 ft 434 kts 206°
2026-04-20 13:32 39.97260 14.05057 38010 ft 434 kts 206°
2026-04-20 13:32 39.91543 14.02406 38016 ft 434 kts 206°
2026-04-20 13:33 39.85865 13.99777 38021 ft 434 kts 206°
2026-04-20 13:33 39.80200 13.97158 38017 ft 434 kts 206°
2026-04-20 13:34 39.74513 13.94535 38015 ft 433 kts 206°
2026-04-20 13:34 39.68829 13.91916 37948 ft 433 kts 206°
2026-04-20 13:34 39.66002 13.90614 37622 ft 431 kts 206°
2026-04-20 13:35 39.63185 13.89321 37315 ft 429 kts 206°
2026-04-20 13:35 39.60413 13.88049 36991 ft 426 kts 206°
2026-04-20 13:35 39.57631 13.86772 36615 ft 424 kts 206°
2026-04-20 13:35 39.54858 13.85499 36244 ft 424 kts 206°
2026-04-20 13:36 39.52031 13.84201 35738 ft 425 kts 206°
2026-04-20 13:36 39.49237 13.82919 35167 ft 427 kts 206°
2026-04-20 13:36 39.46438 13.81636 34556 ft 430 kts 206°
2026-04-20 13:36 39.43612 13.80344 33855 ft 432 kts 206°
2026-04-20 13:37 39.42869 13.80005 33675 ft 433 kts 206°
2026-04-20 13:37 39.40474 13.78915 33105 ft 434 kts 205°
2026-04-20 13:37 39.37365 13.77506 32380 ft 435 kts 205°
2026-04-20 13:37 39.34473 13.76198 31686 ft 436 kts 205°
2026-04-20 13:38 39.31632 13.74913 31006 ft 437 kts 205°
2026-04-20 13:38 39.28756 13.73612 30319 ft 438 kts 205°
2026-04-20 13:38 39.25893 13.72321 29843 ft 433 kts 205°
2026-04-20 13:38 39.23089 13.71057 29378 ft 428 kts 205°
2026-04-20 13:39 39.20279 13.69790 28741 ft 427 kts 205°
2026-04-20 13:39 39.17416 13.68495 27750 ft 434 kts 205°
2026-04-20 13:39 39.14463 13.67159 26962 ft 434 kts 205°
2026-04-20 13:39 39.11546 13.65846 26370 ft 430 kts 204°
2026-04-20 13:40 39.08727 13.64579 25808 ft 426 kts 204°
2026-04-20 13:40 39.05957 13.63335 25242 ft 422 kts 204°
2026-04-20 13:40 39.03193 13.62094 24659 ft 419 kts 204°
2026-04-20 13:40 39.00436 13.60857 24087 ft 416 kts 204°
2026-04-20 13:41 38.97731 13.59642 23542 ft 412 kts 204°
2026-04-20 13:41 38.95021 13.58427 23004 ft 408 kts 204°
2026-04-20 13:41 38.92355 13.57232 22463 ft 405 kts 204°
2026-04-20 13:41 38.89729 13.56057 21933 ft 402 kts 204°
2026-04-20 13:42 38.87062 13.54867 21384 ft 398 kts 203°
2026-04-20 13:42 38.81705 13.53233 20291 ft 392 kts 194°
2026-04-20 13:42 38.78917 13.52650 19291 ft 387 kts 193°
2026-04-20 13:43 38.76183 13.52093 18497 ft 373 kts 193°
2026-04-20 13:43 38.73652 13.51577 17888 ft 358 kts 194°
2026-04-20 13:43 38.71229 13.51078 17222 ft 346 kts 194°
2026-04-20 13:43 38.68876 13.50587 16502 ft 338 kts 194°
2026-04-20 13:44 38.66627 13.50116 15941 ft 325 kts 194°
2026-04-20 13:44 38.64361 13.49484 15384 ft 310 kts 203°
2026-04-20 13:44 38.62407 13.48502 14828 ft 298 kts 208°
2026-04-20 13:44 38.60538 13.47424 14315 ft 289 kts 209°
2026-04-20 13:45 38.58771 13.46307 13955 ft 280 kts 219°
2026-04-20 13:45 38.57558 13.44521 13670 ft 263 kts 252°
2026-04-20 13:45 38.57394 13.42265 13371 ft 253 kts 286°
2026-04-20 13:45 38.58156 13.40304 13085 ft 248 kts 302°
2026-04-20 13:46 38.59087 13.38446 12848 ft 244 kts 300°
2026-04-20 13:46 38.59906 13.36577 12612 ft 238 kts 294°
2026-04-20 13:46 38.60319 13.34570 12344 ft 234 kts 279°
2026-04-20 13:46 38.60783 13.32590 11968 ft 234 kts 302°
2026-04-20 13:47 38.61959 13.31187 11577 ft 239 kts 333°
2026-04-20 13:47 38.63573 13.30765 11185 ft 245 kts
2026-04-20 13:47 38.65185 13.31480 10788 ft 252 kts 33°
2026-04-20 13:47 38.66338 13.33187 10389 ft 259 kts 64°
2026-04-20 13:48 38.66691 13.35447 9992 ft 263 kts 94°
2026-04-20 13:48 38.66140 13.37659 9589 ft 265 kts 123°
2026-04-20 13:48 38.64831 13.39263 9191 ft 264 kts 153°
2026-04-20 13:48 38.63103 13.39840 8972 ft 253 kts 184°
2026-04-20 13:49 38.61488 13.39257 8958 ft 233 kts 216°
2026-04-20 13:49 38.60461 13.37807 8949 ft 216 kts 249°
2026-04-20 13:49 38.60019 13.36007 8956 ft 211 kts 252°
2026-04-20 13:49 38.59232 13.34433 8621 ft 217 kts 219°
2026-04-20 13:50 38.57935 13.33445 8285 ft 218 kts 215°
2026-04-20 13:50 38.56739 13.32248 8028 ft 214 kts 223°
2026-04-20 13:50 38.55663 13.31054 7892 ft 203 kts 219°
2026-04-20 13:50 38.54503 13.30078 7613 ft 199 kts 211°
2026-04-20 13:51 38.53245 13.29243 7335 ft 195 kts 207°
2026-04-20 13:51 38.52027 13.28497 7067 ft 191 kts 206°
2026-04-20 13:51 38.50844 13.27796 6811 ft 186 kts 205°
2026-04-20 13:51 38.49675 13.27116 6567 ft 181 kts 204°
2026-04-20 13:52 38.48526 13.26455 6322 ft 183 kts 204°
2026-04-20 13:52 38.47352 13.25787 6093 ft 189 kts 204°
2026-04-20 13:52 38.46142 13.25104 5843 ft 188 kts 204°
2026-04-20 13:52 38.44952 13.24436 5594 ft 187 kts 203°
2026-04-20 13:53 38.43765 13.23772 5344 ft 185 kts 204°
2026-04-20 13:53 38.42598 13.23120 5091 ft 180 kts 204°
2026-04-20 13:53 38.41466 13.22489 4859 ft 175 kts 204°
2026-04-20 13:53 38.40372 13.21879 4628 ft 170 kts 204°
2026-04-20 13:54 38.39303 13.21283 4404 ft 166 kts 204°
2026-04-20 13:54 38.38241 13.20690 4193 ft 166 kts 204°
2026-04-20 13:54 38.37191 13.20103 3977 ft 165 kts 204°
2026-04-20 13:54 38.36140 13.19515 3761 ft 161 kts 204°
2026-04-20 13:55 38.35160 13.18967 3558 ft 147 kts 204°
2026-04-20 13:55 38.34248 13.18456 3349 ft 141 kts 204°
2026-04-20 13:55 38.33345 13.17950 3175 ft 141 kts 204°
2026-04-20 13:55 38.32451 13.17449 2993 ft 140 kts 204°
2026-04-20 13:56 38.31520 13.16927 2798 ft 140 kts 204°
2026-04-20 13:56 38.30638 13.16432 2613 ft 139 kts 204°
2026-04-20 13:56 38.29742 13.15929 2426 ft 139 kts 204°
2026-04-20 13:56 38.28854 13.15431 2244 ft 139 kts 204°
2026-04-20 13:57 38.27967 13.14936 2060 ft 140 kts 203°
2026-04-20 13:57 38.27068 13.14446 1881 ft 141 kts 204°
2026-04-20 13:57 38.26172 13.13927 1697 ft 141 kts 206°
2026-04-20 13:57 38.25283 13.13416 1469 ft 140 kts 204°
2026-04-20 13:58 38.24382 13.12926 1292 ft 139 kts 204°
2026-04-20 13:58 38.23498 13.12435 1141 ft 140 kts 204°
2026-04-20 13:58 38.22602 13.11923 938 ft 140 kts 205°
2026-04-20 13:58 38.21717 13.11409 741 ft 140 kts 204°
2026-04-20 13:59 38.20818 13.10916 621 ft 142 kts 204°
2026-04-20 13:59 38.19908 13.10395 410 ft 141 kts 204°
2026-04-20 13:59 38.19002 13.09896 211 ft 142 kts 204°
2026-04-20 13:59 38.18103 13.09398 48 ft 140 kts 205°
2026-04-20 14:00 38.17296 13.08938 56 ft 109 kts 204°
2026-04-20 14:00 38.16861 13.08695 61 ft 41 kts 203°
2026-04-20 14:00 38.16662 13.08563 53 ft 20 kts 251°
2026-04-20 14:00 38.16744 13.08444 48 ft 21 kts 356°
2026-04-20 14:01 38.16835 13.08462 48 ft 9 kts 15°
2026-04-20 14:01 38.16895 13.08484 49 ft 9 kts 16°
2026-04-20 14:01 38.16963 13.08511 49 ft 10 kts 19°
2026-04-20 14:01 38.17033 13.08541 49 ft 10 kts 19°
2026-04-20 14:02 38.17106 13.08573 50 ft 11 kts 18°
2026-04-20 14:02 38.17185 13.08606 49 ft 12 kts 18°
2026-04-20 14:02 38.17274 13.08643 48 ft 14 kts 18°
2026-04-20 14:02 38.17364 13.08680 46 ft 13 kts 18°
2026-04-20 14:03 38.17459 13.08718 44 ft 15 kts 18°
2026-04-20 14:03 38.17532 13.08759 42 ft 7 kts 33°
2026-04-20 14:03 38.17581 13.08803 41 ft 9 kts 36°
2026-04-20 14:03 38.17642 13.08859 39 ft 11 kts 37°
2026-04-20 14:04 38.17697 13.08913 39 ft 10 kts 37°
2026-04-20 14:04 38.17746 13.08981 39 ft 10 kts 59°
2026-04-20 14:04 38.17775 13.09062 41 ft 9 kts 68°
2026-04-20 14:04 38.17799 13.09135 43 ft 8 kts 67°
2026-04-20 14:05 38.17821 13.09200 45 ft 8 kts 67°
2026-04-20 14:05 38.17849 13.09282 47 ft 10 kts 66°
2026-04-20 14:05 38.17880 13.09369 49 ft 11 kts 66°
2026-04-20 14:05 38.17912 13.09467 52 ft 11 kts 66°
2026-04-20 14:06 38.17942 13.09554 54 ft 9 kts 66°
2026-04-20 14:06 38.17965 13.09622 56 ft 7 kts 68°
2026-04-20 14:06 38.17984 13.09681 57 ft 7 kts 68°
2026-04-20 14:06 38.18005 13.09744 59 ft 8 kts 67°
2026-04-20 14:07 38.18028 13.09813 61 ft 8 kts 68°
2026-04-20 14:07 38.18076 13.09865 59 ft 11 kts 357°
2026-04-20 14:07 38.18174 13.09820 52 ft 17 kts 338°
2026-04-20 14:07 38.18246 13.09834 50 ft 6 kts 65°
2026-04-20 14:08 38.18261 13.09874 51 ft 3 kts 67°
2026-04-20 14:08 38.18268 13.09897 51 ft 1 kts 67°
2026-04-20 14:08 38.18271 13.09906 52 ft 3 kts 69°
2026-04-20 14:08 38.18287 13.09955 53 ft 7 kts 66°
2026-04-20 14:09 38.18308 13.10015 54 ft 6 kts 66°
2026-04-20 14:09 38.18322 13.10057 56 ft 4 kts 67°
2026-04-20 14:09 38.18331 13.10084 56 ft 2 kts 68°
2026-04-20 14:09 38.18336 13.10099 57 ft 1 kts 68°
2026-04-20 14:10 38.18339 13.10110 57 ft 1 kts 67°
2026-04-20 14:10 38.18343 13.10119 57 ft 2 kts 65°
2026-04-20 14:10 38.18348 13.10134 57 ft 1 kts 66°
2026-04-20 14:10 38.18349 13.10136 57 ft 0 kts 66°